Location: Helstorf
(52.5868°N, 9.5862°E)
Time: 11:03:10
(UTC+00:00)

Meteor 2-9 Rocket - Pass Details

Date: 15 May 2026
Orbit: 790 x 893 km, 81.3° (Epoch: 5 June)

Event Time Altitude Azimuth Distance (km) Brightness Sun altitude
Rises 22:31:00 0° 345° (NNW) 3,319 9.1 -17.6°
Reaches altitude 10° 22:33:22 10° 344° (NNW) 2,394 7.9 -17.7°
Maximum altitude 22:38:44 73° 261° (W) 859 4.2 -17.9°
Enters shadow 22:41:27 31° 183° (S) 1,420 4.8 -17.9°
